Location: Beuvrequen
(50.8014°N, 1.6652°E)
Time: 03:21:43
(UTC+00:00)

Okean 1-7 Rocket - Pass Details

Date: 16 October 2021
Orbit: 617 x 648 km, 82.5° (Epoch: 05 December)

Event Time Altitude Azimuth Distance (km) Brightness Sun altitude
Rises 18:13:47 0° 354° (N) 2,905 7.1 -12.6°
Reaches altitude 10° 18:16:08 10° 2° (N) 1,995 6.2 -13.0°
Maximum altitude 18:20:18 40° 73° (ENE) 918 4.0 -13.6°
Drops below altitude 10° 18:24:28 10° 144° (SE) 1,989 5.8 -14.3°
Enters shadow 18:24:37 - 144° (SE) 2,046 5.9 -14.3°
